World > North America > United States > North Dakota

Simcoe, North Dakota Regional Weather

Lat: 48.16N, Lon: 100.87W
Wx Zone: NDZ012Web Search

Our weather pages are very print friendly and they make great conversation starters.

Feedback


°F Click to change Simcoe hourly weather to Imperial units.Click to change Simcoe hourly weather to Metric units. °C
Simcoe Weather Map
UTC Time: 4/15/2021, 16:21
Your Time:

Simcoe, ND Regional Weather

Expires:202104151700;;596516
ASUS43 KBIS 151610
RWRND 

NORTH DAKOTA REGIONAL WEATHER ROUNDUP
NATIONAL WEATHER SERVICE BISMARCK ND
1100 AM CDT THU APR 15 2021

NOTE: "FAIR" INDICATES FEW OR NO CLOUDS BELOW 12,000 FEET WITH NO
SIGNIFICANT WEATHER AND/OR OBSTRUCTIONS TO VISIBILITY.



NDZ004>008-012>016-024-026-027-054-151700-
NORTHEAST NORTH DAKOTA
  
CITY           SKY/WX    TMP DP  RH WIND       PRES   REMARKS
GRAND FORKS    DRIZZLE   33  27  78 N10       30.28F                  
GRND FRKS AFB  CLOUDY    33  32  94 N10       30.28F                  
DEVILS LAKE    CLOUDY    32  29  88 N3        30.30R                  
$$
 

SKY/WX - Weather  TMP - Temperature  DP - Dew Point  RH - Relative Humidity
WIND - Wind Direction/Speed PRES - Barometric Pressure VSB - Visibility
WCI - Wind Chill Index E13G22 Wind - East Wind 13 mph/Gusts of 22 mph